Torna al catalogo

EKRAN 10

AttivoComunicazioniGEO
NORAD 13878·PAYLOAD·🇷🇺 Russia

Lanciato Mar 12, 1983 da Baikonur Cosmodrome

Loading…

TLE

AggiornatoSource: Space-Track

Epoca: Sep 14, 2026, 13:25 UTC

1 13878U 83016A   26257.55928417 -.00000100  00000-0  00000-0 0  9990
2 13878  10.2262 309.8690 0031098  26.0544 138.7486  0.95030392120022

Traccia EKRAN 10 in tempo reale con AllMySat

Download on the App Store